CW8027 Weather Reports


time (UTC)temp
F
wind
direction
speed
knots
gust
knots
rain 1hr
in
rain 24hr
in
rain mn
in
humidity
%
barometer
mb
20260505102028 57 161 3.5 7.0 0.00 0.35 0.00 65 1000.1
20260505101024 57 173 4.3 7.8 0.00 0.35 0.00 65 1000.0
20260505100051 57 167 4.3 7.0 0.00 0.35 0.00 65 1000.0
20260505095038 57 171 3.5 9.6 0.00 0.35 0.00 65 1000.0
20260505094048 56 140 4.3 8.7 0.00 0.35 0.00 65 1000.1
20260505093049 56 178 4.3 8.7 0.00 0.35 0.00 65 1000.3
20260505092053 56 173 3.5 9.6 0.00 0.35 0.00 65 1000.1
20260505091041 56 181 3.5 10.4 0.00 0.35 0.00 64 1000.3
20260505090039 56 154 4.3 7.8 0.00 0.35 0.00 64 1000.3
20260505085047 56 153 5.2 7.8 0.00 0.35 0.00 65 1000.2
20260505084027 56 139 4.3 7.0 0.00 0.35 0.00 65 1000.3
20260505083037 56 167 4.3 7.8 0.00 0.35 0.00 65 1000.4
20260505082038 56 180 3.5 7.0 0.00 0.35 0.00 65 1000.5
20260505081043 56 171 4.3 7.0 0.00 0.35 0.00 65 1000.4
20260505080043 56 153 4.3 7.8 0.00 0.35 0.00 64 1000.3
20260505075029 56 165 3.5 7.0 0.00 0.35 0.00 63 1000.3
20260505074027 57 157 3.5 7.0 0.00 0.35 0.00 62 1000.3
20260505073038 57 143 4.3 7.8 0.00 0.35 0.00 62 1000.3
20260505072038 57 178 3.5 7.0 0.00 0.35 0.00 62 1000.4
20260505071046 57 165 3.5 6.1 0.00 0.35 0.00 62 1000.7
20260505070047 57 161 3.5 5.2 0.00 0.35 0.00 62 1000.8
20260505065027 57 171 3.5 6.1 0.00 0.35 0.00 61 1001.0
20260505064057 58 161 3.5 7.0 0.00 0.35 0.00 61 1000.9
20260505063043 58 171 3.5 6.1 0.00 0.35 0.00 61 1000.9
20260505062042 58 147 2.6 6.1 0.00 0.35 0.00 60 1000.8
20260505061052 58 172 3.5 5.2 0.00 0.35 0.00 59 1000.8
20260505060031 58 161 3.5 5.2 0.00 0.35 0.00 60 1000.9
20260505055100 58 160 3.5 6.1 0.00 0.35 0.00 60 1000.9
20260505054111 58 182 4.3 6.1 0.00 0.35 0.00 60 1001.1
20260505053031 58 163 3.5 7.0 0.00 0.35 0.00 60 1001.2
20260505052040 58 172 3.5 6.1 0.00 0.35 0.00 60 1001.3
20260505051040 58 182 2.6 8.7 0.00 0.35 0.00 60 1001.5
20260505041052 57 187 3.5 6.1 0.00 0.35 0.00 64 1001.8
20260505040042 57 172 2.6 7.0 0.00 0.35 0.07 65 1001.9
20260505035107 57 170 2.6 4.3 0.00 0.35 0.07 65 1001.9
20260505034047 57 154 3.5 5.2 0.00 0.35 0.07 65 1002.0
20260505033038 57 154 2.6 5.2 0.00 0.35 0.07 66 1001.9
20260505032040 57 163 3.5 6.1 0.00 0.35 0.07 66 1002.0
20260505031030 58 155 2.6 5.2 0.00 0.35 0.07 66 1002.0
20260505030034 58 136 3.5 6.1 0.00 0.35 0.07 66 1002.2
20260505025035 58 153 2.6 6.1 0.00 0.35 0.07 66 1002.2
20260505024039 58 156 2.6 5.2 0.00 0.35 0.07 66 1002.3
20260505023028 58 161 3.5 6.1 0.00 0.35 0.07 65 1002.2
20260505022028 58 164 2.6 6.1 0.00 0.35 0.07 65 1002.4
20260505021037 59 134 1.7 7.8 0.00 0.35 0.07 65 1002.5
20260505020037 59 139 2.6 7.0 0.00 0.35 0.07 64 1002.5
20260505015025 59 143 3.5 6.1 0.00 0.35 0.07 64 1002.5
20260505014027 59 140 2.6 6.1 0.00 0.35 0.07 63 1002.4
20260505013033 60 134 3.5 6.1 0.00 0.35 0.07 63 1002.4
20260505012034 60 119 2.6 6.1 0.00 0.35 0.07 63 1002.3
20260505011024 60 127 2.6 6.1 0.00 0.35 0.07 63 1002.4
20260505010054 60 155 2.6 7.0 0.00 0.35 0.07 63 1002.7
20260505005032 60 162 3.5 7.8 0.00 0.35 0.07 63 1002.5
20260505004038 60 168 2.6 4.3 0.00 0.35 0.07 63 1002.7
20260505003105 61 144 1.7 7.8 0.00 0.35 0.07 63 1002.6
20260505002025 61 176 2.6 7.0 0.00 0.35 0.07 62 1002.6
20260505001024 61 178 2.6 7.0 0.00 0.35 0.07 62 1002.5
20260505000035 62 168 1.7 7.0 0.00 0.35 0.07 62 1002.4
20260504235046 62 133 2.6 7.0 0.00 0.35 0.07 61 1002.1
20260504234028 63 130 1.7 4.3 0.00 0.35 0.07 59 1002.3
20260504233027 64 169 4.3 7.0 0.00 0.35 0.07 54 1002.1
20260504232033 64 196 1.7 4.3 0.00 0.35 0.07 54 1002.0
20260504231044 65 150 1.7 5.2 0.00 0.35 0.07 53 1002.2
20260504230027 65 174 2.6 8.7 0.00 0.35 0.07 53 1002.3
20260504225030 65 238 3.5 7.0 0.00 0.35 0.07 51 1002.3
20260504224039 65 180 3.5 7.0 0.00 0.35 0.07 51 1002.3
20260504223047 65 224 3.5 10.4 0.00 0.35 0.07 51 1002.4
20260504222048 65 253 5.2 10.4 0.00 0.35 0.07 50 1002.3
20260504221034 66 232 5.2 8.7 0.00 0.35 0.07 50 1002.4
20260504220033 66 251 5.2 12.2 0.00 0.35 0.07 50 1002.2
20260504215042 66 224 5.2 16.5 0.00 0.35 0.07 50 1002.3
20260504214052 66 243 5.2 15.6 0.00 0.35 0.07 50 1002.2
20260504213029 66 236 8.7 17.4 0.00 0.35 0.07 49 1002.2
20260504212102 66 195 7.8 15.6 0.00 0.35 0.07 50 1002.4
20260504211047 66 209 1.7 10.4 0.00 0.35 0.07 51 1002.3
20260504210056 67 198 5.2 9.6 0.00 0.35 0.07 51 1002.5
20260504205107 66 211 3.5 8.7 0.00 0.35 0.07 51 1002.4
20260504204047 67 175 5.2 12.2 0.00 0.35 0.07 50 1002.5
20260504203034 65 226 4.3 10.4 0.00 0.35 0.07 53 1002.5
20260504202036 66 238 3.5 8.7 0.00 0.35 0.07 52 1002.6
20260504201042 65 281 3.5 7.8 0.00 0.35 0.07 54 1002.7
20260504200041 65 237 4.3 9.6 0.00 0.35 0.07 54 1002.7
20260504195028 65 201 5.2 15.6 0.00 0.35 0.07 55 1002.8
20260504194027 64 146 3.5 10.4 0.00 0.35 0.07 57 1003.0
20260504193037 62 219 4.3 9.6 0.00 0.35 0.07 60 1003.2
20260504192039 62 288 7.0 12.2 0.00 0.35 0.07 59 1003.2
20260504191031 61 213 7.8 14.8 0.00 0.35 0.07 61 1003.4
20260504190028 61 276 5.2 8.7 0.00 0.35 0.07 63 1003.5
20260504185101 62 236 4.3 7.8 0.00 0.35 0.07 62 1003.7
20260504184049 59 223 5.2 8.7 0.00 0.35 0.07 66 1003.7
20260504183029 59 269 6.1 9.6 0.00 0.35 0.07 65 1004.0
20260504182100 59 159 6.1 8.7 0.00 0.35 0.07 66 1004.1
20260504181038 58 192 6.1 11.3 0.00 0.35 0.07 69 1004.1
20260504180028 57 193 4.3 9.6 0.00 0.35 0.07 70 1004.1
20260504175051 57 197 3.5 11.3 0.00 0.35 0.07 72 1004.2
20260504174031 56 149 5.2 14.8 0.00 0.35 0.07 72 1004.3
20260504173034 55 131 6.1 10.4 0.00 0.35 0.07 72 1004.4
20260504172104 56 244 6.1 12.2 0.00 0.35 0.07 72 1004.5
20260504171032 56 189 7.8 12.2 0.00 0.35 0.07 72 1004.5
20260504151039 50 209 8.7 13.9 0.00 0.35 0.07 84 1004.6
20260504141042 49 268 6.1 12.2 0.00 0.35 0.07 89 1004.5